Weather History for Centerville, IA

Change the Weather History Date:

Tuesday, October 23, 2012

  Actual Average Record
Temperature  
Mean Temperature 68 °F -  
Max Temperature 73 °F 60 °F 83 °F (1963)
Min Temperature 64 °F 42 °F 21 °F (1981)
Cooling Degree Days 4    
Growing Degree Days 18 (Base 50)    
Moisture  
Dew Point 64 °F    
Average Humidity 85    
Maximum Humidity 100    
Minimum Humidity 73    
Precipitation  
Precipitation 0.00 in - - ()
Sea Level Pressure  
Sea Level Pressure 29.82 in    
Wind  
Wind Speed 13 mph (South)    
Max Wind Speed 18 mph    
Max Gust Speed 25 mph    
Visibility 10 miles    
Events      
Averages and records for this station are not official NWS values.
T = Trace of Precipitation, MM = Missing Value Source: NWS Daily Summary

Daily Weather History Graph

Daily Weather History Graph

Search for Another Location

Airport:

Trip Planner

Search our weather history database for the weather conditions in past years. The results will help you decide how hot, cold, wet, or windy it might be!

Date:

Astronomy

Oct. 23, 2012 Rise Set
Actual Time 7:32 AM CDT 6:18 PM CDT
Civil Twilight 7:04 AM CDT 6:46 PM CDT
Nautical Twilight 6:32 AM CDT 7:18 PM CDT
Astronomical Twilight 6:00 AM CDT 7:50 PM CDT
Moon 3:04 PM CDT (10/23) 1:22 AM CDT (10/23)
Length of Visible Light 11h 42m
Length of Day
10h 46m
Waxing Gibbous, 67% of the Moon is Illuminated
Oct 23
Waxing Gibbous
Oct 29
Full
Nov 6
Last Quarter
Nov 13
New
Nov 20
First Quarter

Hourly Weather History & Observations

Time (CDT) Temp. Dew Point Humidity Pressure Visibility Wind Dir Wind Speed Gust Speed Precip Events Conditions
12:15 AM 71.6 °F 66.2 °F 83% 29.84 in 10.0 mi South 12.7 mph 17.3 mph N/A   Clear
12:35 AM 69.8 °F 66.2 °F 88% 29.84 in 10.0 mi South 10.4 mph - N/A   Clear
12:55 AM 69.8 °F 66.2 °F 88% 29.84 in 10.0 mi South 11.5 mph - N/A   Partly Cloudy
1:15 AM 69.8 °F 66.2 °F 88% 29.84 in 10.0 mi South 12.7 mph - N/A   Partly Cloudy
1:35 AM 69.8 °F 66.2 °F 88% 29.84 in 10.0 mi SSW 11.5 mph - N/A   Clear
1:55 AM 68.0 °F 66.2 °F 94% 29.84 in 10.0 mi South 12.7 mph - N/A   Clear
2:35 AM 68.0 °F 64.4 °F 88% 29.84 in 10.0 mi South 12.7 mph - N/A   Clear
3:15 AM 68.0 °F 64.4 °F 88% 29.84 in 10.0 mi South 10.4 mph - N/A   Scattered Clouds
3:35 AM 68.0 °F 64.4 °F 88% 29.84 in 10.0 mi South 9.2 mph - N/A   Partly Cloudy
3:55 AM 68.0 °F 66.2 °F 94% 29.83 in 10.0 mi South 11.5 mph - N/A   Scattered Clouds
4:15 AM 68.0 °F 66.2 °F 94% 29.83 in 10.0 mi South 9.2 mph - N/A   Mostly Cloudy
4:35 AM 68.0 °F 66.2 °F 94% 29.83 in 10.0 mi South 13.8 mph - N/A   Scattered Clouds
4:55 AM 68.0 °F 66.2 °F 94% 29.83 in 7.0 mi South 11.5 mph - N/A   Mostly Cloudy
5:15 AM 68.0 °F 66.2 °F 94% 29.84 in 10.0 mi South 12.7 mph - N/A   Mostly Cloudy
5:35 AM 66.2 °F 66.2 °F 100% 29.84 in 10.0 mi South 12.7 mph 19.6 mph N/A   Scattered Clouds
5:55 AM 66.2 °F 64.4 °F 94% 29.84 in 10.0 mi South 11.5 mph - N/A   Scattered Clouds
6:35 AM 66.2 °F 62.6 °F 88% 29.85 in 10.0 mi SSE 17.3 mph 23.0 mph N/A   Overcast
6:55 AM 64.4 °F 62.6 °F 94% 29.86 in 10.0 mi SSE 18.4 mph 21.9 mph N/A   Overcast
7:15 AM 64.4 °F 60.8 °F 88% 29.87 in 10.0 mi SSE 15.0 mph 19.6 mph N/A   Overcast
7:35 AM 64.4 °F 60.8 °F 88% 29.87 in 10.0 mi SSE 17.3 mph 21.9 mph N/A   Overcast
7:55 AM 64.4 °F 59.0 °F 83% 29.87 in 10.0 mi SSE 16.1 mph 25.3 mph N/A   Overcast
8:15 AM 64.4 °F 60.8 °F 88% 29.87 in 10.0 mi SSE 15.0 mph 23.0 mph N/A   Overcast
8:35 AM 64.4 °F 60.8 °F 88% 29.87 in 10.0 mi SSE 17.3 mph - N/A   Overcast
8:55 AM 64.4 °F 62.6 °F 94% 29.87 in 10.0 mi SSE 16.1 mph 21.9 mph N/A   Overcast
9:15 AM 64.4 °F 62.6 °F 94% 29.87 in 10.0 mi SSE 13.8 mph - N/A   Overcast
9:35 AM 64.4 °F 62.6 °F 94% 29.87 in 10.0 mi SSE 11.5 mph - N/A   Overcast
10:15 AM 64.4 °F 60.8 °F 88% 29.86 in 10.0 mi SSE 13.8 mph 20.7 mph N/A   Overcast
10:55 AM 64.4 °F 60.8 °F 88% 29.84 in 10.0 mi South 13.8 mph - N/A   Mostly Cloudy
11:15 AM 66.2 °F 60.8 °F 83% 29.84 in 10.0 mi SSE 12.7 mph - N/A   Mostly Cloudy
11:35 AM 66.2 °F 62.6 °F 88% 29.84 in 10.0 mi South 15.0 mph - N/A   Overcast
11:55 AM 66.2 °F 62.6 °F 88% 29.84 in 10.0 mi South 13.8 mph - N/A   Overcast
12:15 PM 68.0 °F 62.6 °F 83% 29.84 in 10.0 mi South 15.0 mph 18.4 mph N/A   Overcast
12:35 PM 68.0 °F 62.6 °F 83% 29.83 in 10.0 mi South 13.8 mph - N/A   Overcast
12:55 PM 68.0 °F 64.4 °F 88% 29.82 in 10.0 mi South 12.7 mph - N/A   Overcast
1:15 PM 69.8 °F 64.4 °F 83% 29.81 in 10.0 mi South 12.7 mph 16.1 mph N/A   Overcast
1:35 PM 71.6 °F 64.4 °F 78% 29.80 in 10.0 mi South 15.0 mph 20.7 mph N/A   Overcast
1:55 PM 71.6 °F 64.4 °F 78% 29.79 in 10.0 mi South 16.1 mph 19.6 mph N/A   Overcast
2:15 PM 73.4 °F 64.4 °F 73% 29.78 in 10.0 mi South 13.8 mph 23.0 mph N/A   Mostly Cloudy
2:35 PM 73.4 °F 64.4 °F 73% 29.77 in 10.0 mi South 17.3 mph - N/A   Partly Cloudy
2:55 PM 73.4 °F 64.4 °F 73% 29.76 in 10.0 mi South 15.0 mph 20.7 mph N/A   Partly Cloudy
3:15 PM 73.4 °F 64.4 °F 73% 29.76 in 10.0 mi SSW 18.4 mph 24.2 mph N/A   Mostly Cloudy
3:35 PM 73.4 °F 64.4 °F 73% 29.76 in 10.0 mi South 18.4 mph 23.0 mph N/A   Mostly Cloudy
3:55 PM 73.4 °F 64.4 °F 73% 29.77 in 10.0 mi South 13.8 mph 20.7 mph N/A   Mostly Cloudy
4:15 PM 71.6 °F 64.4 °F 78% 29.76 in 10.0 mi South 16.1 mph - N/A   Overcast
4:35 PM 71.6 °F 64.4 °F 78% 29.76 in 10.0 mi South 16.1 mph 19.6 mph N/A   Overcast
4:55 PM 73.4 °F 64.4 °F 73% 29.76 in 10.0 mi South 11.5 mph - N/A   Overcast
5:15 PM 71.6 °F 64.4 °F 78% 29.76 in 10.0 mi South 11.5 mph - N/A   Overcast
5:35 PM 71.6 °F 64.4 °F 78% 29.76 in 10.0 mi South 13.8 mph - N/A   Overcast
5:55 PM 71.6 °F 64.4 °F 78% 29.77 in 10.0 mi SSE 10.4 mph - N/A   Mostly Cloudy
6:15 PM 71.6 °F 64.4 °F 78% 29.77 in 10.0 mi SSE 12.7 mph - N/A   Scattered Clouds
6:35 PM 69.8 °F 64.4 °F 83% 29.78 in 10.0 mi SSE 9.2 mph - N/A   Partly Cloudy
6:55 PM 69.8 °F 66.2 °F 88% 29.79 in 10.0 mi South 10.4 mph - N/A   Mostly Cloudy
7:15 PM 69.8 °F 66.2 °F 88% 29.80 in 10.0 mi South 8.1 mph - N/A   Overcast
7:35 PM 71.6 °F 66.2 °F 83% 29.80 in 10.0 mi SSE 10.4 mph - N/A   Overcast
7:55 PM 69.8 °F 66.2 °F 88% 29.80 in 10.0 mi South 10.4 mph - N/A   Scattered Clouds
8:15 PM 69.8 °F 66.2 °F 88% 29.80 in 10.0 mi South 11.5 mph - N/A   Clear
8:35 PM 69.8 °F 64.4 °F 83% 29.80 in 10.0 mi South 13.8 mph - N/A   Clear
8:55 PM 69.8 °F 64.4 °F 83% 29.80 in 10.0 mi South 11.5 mph - N/A   Clear
9:15 PM 69.8 °F 64.4 °F 83% 29.80 in 10.0 mi South 12.7 mph - N/A   Clear
9:35 PM 69.8 °F 64.4 °F 83% 29.81 in 10.0 mi South 12.7 mph - N/A   Clear
9:55 PM 69.8 °F 64.4 °F 83% 29.81 in 10.0 mi South 12.7 mph - N/A   Clear
10:15 PM 69.8 °F 64.4 °F 83% 29.81 in 10.0 mi South 13.8 mph - N/A   Clear
10:35 PM 68.0 °F 64.4 °F 88% 29.82 in 10.0 mi South 11.5 mph - N/A   Clear
10:55 PM 68.0 °F 64.4 °F 88% 29.82 in 10.0 mi South 11.5 mph - N/A   Partly Cloudy
11:15 PM 68.0 °F 64.4 °F 88% 29.82 in 10.0 mi South 12.7 mph - N/A   Clear
11:35 PM 68.0 °F 64.4 °F 88% 29.82 in 10.0 mi South 12.7 mph - N/A   Clear
11:55 PM 68.0 °F 64.4 °F 88% 29.82 in 10.0 mi South 12.7 mph - N/A   Clear